EA8CHC Sevilla ES current weather conditions

sailwx.info

Wind from 296 at 1 knots gusting 3

Air temperature 8.9° C
Dewpoint 6.3° C

Last reported at 2015-Jan-28 23:47 UTC.
Time now 2015-Jan-29 00:22 UTC

Location: N 37°26' W 006°03'.
View on Google Maps.

See reports from other nearby stations

  
Tides and Currents Weather Stations Pressure Air Temp Water Temp Dewpoint Dewpoint Depression Visibility Wind Speed Wind Dir Waves Ship Positions
date/time (UTC)wind fromknots sea level pressurealtimeterstation pressurevisibilityair tempwater tempwave heightnotes
2015-Jan-28 23:47 296 1 gusting 3 8.9
2015-Jan-28 23:42 296 2 gusting 3 8.9
2015-Jan-28 23:37 296 1 gusting 3 8.9
2015-Jan-28 23:32 296 1 gusting 5 8.9
2015-Jan-28 23:27 297 2 gusting 5 8.9
2015-Jan-28 23:22 300 3 gusting 4 8.9
2015-Jan-28 23:17 294 3 gusting 4 8.9
2015-Jan-28 23:12 307 3 gusting 4 8.9
2015-Jan-28 23:07 313 2 gusting 4 9.4
2015-Jan-28 23:02 315 2 gusting 3 9.4
2015-Jan-28 22:57 316 2 gusting 3 9.4
2015-Jan-28 22:52 316 2 gusting 3 9.4
2015-Jan-28 22:47 315 2 gusting 3 8.9
2015-Jan-28 22:42 313 2 gusting 3 8.9
2015-Jan-28 22:37 300 1 gusting 3 8.9
2015-Jan-28 22:32 262 0 gusting 2 8.9
2015-Jan-28 22:27 262 0 gusting 2 8.9
2015-Jan-28 22:22 262 1 gusting 2 8.9
2015-Jan-28 22:17 262 0 gusting 2 8.3
2015-Jan-28 22:12 262 0 gusting 3 8.3
2015-Jan-28 22:07 262 1 gusting 3 8.9
2015-Jan-28 22:02 262 2 gusting 3 8.9
2015-Jan-28 21:57 256 1 gusting 3 8.9
2015-Jan-28 21:52 124 1 gusting 3 9.4
2015-Jan-28 21:47 123 0 gusting 3 8.9
2015-Jan-28 21:42 124 9.4
2015-Jan-28 21:37 124 9.4
2015-Jan-28 21:32 123 9.4
2015-Jan-28 21:28 124 9.4
2015-Jan-28 21:22 123 9.4
2015-Jan-28 21:17 124 10.0
2015-Jan-28 21:12 123 0 gusting 3 10.0
2015-Jan-28 21:07 124 1 gusting 4 10.0
2015-Jan-28 21:02 123 1 gusting 4 10.0
2015-Jan-28 20:57 124 1 gusting 4 10.0
2015-Jan-28 20:52 124 1 gusting 3 10.6
2015-Jan-28 20:47 124 1 gusting 3 10.6
2015-Jan-28 20:42 123 1 gusting 3 11.1
2015-Jan-28 20:37 124 0 gusting 3 11.1
2015-Jan-28 20:32 123 11.1
2015-Jan-28 20:27 124 11.7
2015-Jan-28 20:22 124 11.7
2015-Jan-28 20:17 124 11.7
2015-Jan-28 20:12 124 12.2
2015-Jan-28 20:07 124 12.2
2015-Jan-28 20:02 124 0 gusting 4 12.2
2015-Jan-28 19:57 123 0 gusting 4 12.8
2015-Jan-28 19:52 131 1 gusting 6 12.8
2015-Jan-28 19:47 169 2 gusting 6 12.8
2015-Jan-28 19:42 219 2 gusting 8 12.8
2015-Jan-28 19:37 254 3 gusting 8 12.8
2015-Jan-28 19:32 226 4 gusting 8 12.8
2015-Jan-28 19:27 217 4 gusting 8 12.8
2015-Jan-28 19:22 232 5 gusting 7 12.8
2015-Jan-28 19:17 196 3 gusting 7 12.8
2015-Jan-28 19:12 224 2 gusting 6 12.8
2015-Jan-28 19:07 217 3 gusting 8 12.8
2015-Jan-28 19:02 206 3 gusting 8 13.3
2015-Jan-28 18:57 212 4 gusting 8 13.3
2015-Jan-28 18:52 199 5 gusting 8 13.3
2015-Jan-28 18:47 215 5 gusting 8 13.3
2015-Jan-28 18:42 222 5 gusting 8 13.3
2015-Jan-28 18:37 217 4 gusting 8 13.3
2015-Jan-28 18:32 206 3 gusting 6 13.3
2015-Jan-28 18:27 217 4 gusting 6 13.3
2015-Jan-28 18:22 198 4 gusting 6 13.9
2015-Jan-28 18:17 242 3 gusting 6 13.9
2015-Jan-28 18:12 229 2 gusting 6 13.9
2015-Jan-28 18:07 229 2 gusting 5 13.9
2015-Jan-28 18:02 249 2 gusting 4 13.9
2015-Jan-28 17:57 225 1 gusting 4 14.4
2015-Jan-28 17:52 189 0 gusting 4 14.4
2015-Jan-28 17:47 188 2 gusting 4 14.4
2015-Jan-28 17:42 220 1 gusting 5 15.0
2015-Jan-28 17:37 227 2 gusting 5 15.0
2015-Jan-28 17:32 197 2 gusting 5 15.0
2015-Jan-28 17:27 227 2 gusting 5 15.6
2015-Jan-28 17:22 217 2 gusting 5 15.6
2015-Jan-28 17:17 237 2 gusting 5 15.6
2015-Jan-28 17:12 244 1 gusting 5 16.1
2015-Jan-28 17:07 299 0 gusting 4 16.1
2015-Jan-28 17:02 226 0 gusting 6 16.1
2015-Jan-28 16:57 226 2 gusting 6 16.1
2015-Jan-28 16:52 226 3 gusting 7 16.1
2015-Jan-28 16:47 215 3 gusting 7 16.1
2015-Jan-28 16:42 231 4 gusting 7 16.1
2015-Jan-28 16:37 213 4 gusting 7 16.1
2015-Jan-28 16:32 205 3 gusting 8 16.1
2015-Jan-28 16:27 216 3 gusting 8 16.7
2015-Jan-28 16:22 223 4 gusting 9 16.7
2015-Jan-28 16:17 200 4 gusting 9 16.7
2015-Jan-28 16:12 174 5 gusting 9 16.7
2015-Jan-28 16:07 189 5 gusting 8 16.1
2015-Jan-28 16:02 180 5 gusting 8 16.7
2015-Jan-28 15:57 172 4 gusting 8 16.7
2015-Jan-28 15:52 167 4 gusting 8 16.7
2015-Jan-28 15:47 173 5 gusting 8 16.1
2015-Jan-28 15:42 190 5 gusting 9 16.1
2015-Jan-28 15:37 155 5 gusting 9 16.1
2015-Jan-28 15:32 147 5 gusting 9 16.1
2015-Jan-28 15:27 157 4 gusting 9 16.1
2015-Jan-28 15:22 172 5 gusting 9 16.1
2015-Jan-28 15:17 148 5 gusting 9 16.1
2015-Jan-28 15:12 142 5 gusting 6 16.1
2015-Jan-28 15:07 117 4 gusting 7 16.1
2015-Jan-28 15:02 167 4 gusting 8 16.1
2015-Jan-28 14:57 137 4 gusting 8 16.1
2015-Jan-28 14:52 151 5 gusting 9 16.1
2015-Jan-28 14:47 169 5 gusting 9 16.1
2015-Jan-28 14:42 202 5 gusting 9 16.1
2015-Jan-28 14:37 161 4 gusting 6 16.1
2015-Jan-28 14:32 103 3 gusting 7 15.6
2015-Jan-28 14:27 092 3 gusting 7 15.6
2015-Jan-28 14:22 115 3 gusting 7 15.6
2015-Jan-28 14:17 114 2 gusting 6 15.6
2015-Jan-28 14:12 148 2 gusting 6 15.6
2015-Jan-28 14:07 132 2 gusting 5 15.6
2015-Jan-28 14:02 154 1 gusting 4 15.6
2015-Jan-28 13:57 233 1 gusting 4 15.6
2015-Jan-28 13:52 138 0 gusting 4 15.6
2015-Jan-28 13:47 173 0 gusting 3 15.6
2015-Jan-28 13:42 180 0 gusting 3 15.6
2015-Jan-28 13:37 180 0 gusting 3 15.6
2015-Jan-28 13:32 182 15.6
2015-Jan-28 13:27 150 15.6
2015-Jan-28 13:22 150 0 gusting 3 15.6
2015-Jan-28 13:17 150 0 gusting 3 15.6
2015-Jan-28 13:12 150 0 gusting 3 15.6
2015-Jan-28 13:07 127 0 gusting 3 15.0
2015-Jan-28 13:02 127 15.0
2015-Jan-28 12:57 127 15.0
2015-Jan-28 12:52 127 14.4
2015-Jan-28 12:47 127 0 gusting 3 14.4
2015-Jan-28 12:42 127 0 gusting 3 14.4
2015-Jan-28 12:37 146 14.4
2015-Jan-28 12:32 155 13.9
2015-Jan-28 12:27 155 0 gusting 3 13.9
2015-Jan-28 12:22 155 0 gusting 3 13.9
2015-Jan-28 12:17 116 13.3
2015-Jan-28 12:12 116 0 gusting 6 13.3
2015-Jan-28 12:07 116 1 gusting 6 12.8
2015-Jan-28 12:02 156 1 gusting 5 12.8
2015-Jan-28 11:57 142 1 gusting 5 12.8
2015-Jan-28 11:52 074 1 gusting 3 12.2
2015-Jan-28 11:47 074 1 gusting 3 12.2
2015-Jan-28 11:42 065 1 gusting 4 12.2
2015-Jan-28 11:37 067 1 gusting 5 11.7
2015-Jan-28 11:32 119 1 gusting 6 11.7
2015-Jan-28 11:27 119 1 gusting 6 11.7
2015-Jan-28 11:22 089 1 gusting 6 11.7
2015-Jan-28 11:17 115 0 gusting 6 11.1
2015-Jan-28 11:12 122 0 gusting 6 11.1
2015-Jan-28 11:07 122 1 gusting 6 10.6
2015-Jan-28 11:02 130 2 gusting 5 10.6
2015-Jan-28 10:57 089 1 gusting 5 10.6
2015-Jan-28 10:52 098 2 gusting 6 10.0
2015-Jan-28 10:47 076 3 gusting 6 10.0
2015-Jan-28 10:42 101 3 gusting 7 10.0
2015-Jan-28 10:37 103 4 gusting 7 9.4
2015-Jan-28 10:32 107 4 gusting 6 9.4
2015-Jan-28 10:27 110 3 gusting 6 9.4
2015-Jan-28 10:22 105 2 gusting 3 9.4
2015-Jan-28 10:17 121 0 gusting 3 9.4
2015-Jan-28 10:12 080 0 gusting 2 9.4
2015-Jan-28 10:07 048 0 gusting 3 8.9
2015-Jan-28 10:02 048 0 gusting 3 8.9
2015-Jan-28 09:57 049 1 gusting 3 8.9
2015-Jan-28 09:52 049 1 gusting 2 8.3
2015-Jan-28 09:47 101 0 gusting 2 8.3
2015-Jan-28 09:42 101 0 gusting 2 7.8
2015-Jan-28 09:37 013 0 gusting 2 7.8
2015-Jan-28 09:32 312 7.2
2015-Jan-28 09:27 315 7.2
2015-Jan-28 09:22 318 6.7
2015-Jan-28 09:17 318 0 gusting 2 6.7
2015-Jan-28 09:12 318 0 gusting 4 6.1
2015-Jan-28 09:07 318 0 gusting 4 6.1
2015-Jan-28 09:02 321 1 gusting 4 6.1
2015-Jan-28 08:57 326 2 gusting 4 6.1
2015-Jan-28 08:52 307 2 gusting 4 5.6
2015-Jan-28 08:47 306 1 gusting 3 5.6
2015-Jan-28 08:42 310 0 gusting 3 5.6
2015-Jan-28 08:37 302 0 gusting 4 5.6
2015-Jan-28 08:32 297 1 gusting 4 5.6
2015-Jan-28 08:27 297 2 gusting 4 5.6
2015-Jan-28 08:22 306 1 gusting 2 5.0
2015-Jan-28 08:17 342 0 gusting 2 5.0
2015-Jan-28 08:12 342 0 gusting 2 5.0
2015-Jan-28 08:07 011 0 gusting 4 5.0
2015-Jan-28 08:02 017 1 gusting 4 5.0
2015-Jan-28 07:57 017 2 gusting 4 5.0
2015-Jan-28 07:52 005 2 gusting 3 5.0
2015-Jan-28 07:47 342 1 gusting 3 5.0
2015-Jan-28 07:42 342 1 gusting 2 5.0
2015-Jan-28 07:37 306 0 gusting 2 5.0
2015-Jan-28 07:32 306 1 gusting 4 5.0
2015-Jan-28 07:27 306 1 gusting 4 5.0
2015-Jan-28 07:22 306 2 gusting 4 5.0
2015-Jan-28 07:17 308 3 gusting 4 5.0
2015-Jan-28 07:12 312 3 gusting 4 5.0
2015-Jan-28 07:07 312 2 gusting 4 5.0
2015-Jan-28 07:02 311 2 gusting 4 5.0
2015-Jan-28 06:57 312 2 gusting 4 5.0
2015-Jan-28 06:52 312 2 gusting 3 5.6
2015-Jan-28 06:47 312 1 gusting 3 5.6
2015-Jan-28 05:42 312 5.6
2015-Jan-28 05:37 312 6.1
2015-Jan-28 05:32 312 6.1
2015-Jan-28 05:27 312 6.1
2015-Jan-28 05:22 312 6.1
2015-Jan-28 05:17 312 6.1
2015-Jan-28 05:12 312 6.7
2015-Jan-28 05:07 312 6.7
2015-Jan-28 05:02 312 7.2
2015-Jan-28 04:57 312 0 gusting 2 7.8
2015-Jan-28 04:52 312 0 gusting 0 7.8
2015-Jan-28 04:47 312 7.8
2015-Jan-28 04:42 312 7.8
2015-Jan-28 04:37 312 0 gusting 3 7.2
2015-Jan-28 04:32 312 1 gusting 3 7.2
2015-Jan-28 04:27 312 1 gusting 3 7.2
2015-Jan-28 04:22 312 1 gusting 3 7.2
2015-Jan-28 04:17 312 1 gusting 3 7.2
2015-Jan-28 04:12 312 2 gusting 3 7.2
2015-Jan-28 04:07 312 2 gusting 3 7.2
2015-Jan-28 04:02 312 2 gusting 2 7.2
2015-Jan-28 03:57 312 2 gusting 2 7.2
2015-Jan-28 03:52 312 1 gusting 3 6.7
2015-Jan-28 03:47 311 0 gusting 3 7.2
2015-Jan-28 03:42 312 1 gusting 3 7.2
2015-Jan-28 03:37 312 1 gusting 3 7.2
2015-Jan-28 03:32 312 0 gusting 1 7.2
2015-Jan-28 03:27 312 0 gusting 1 7.2
2015-Jan-28 03:22 312 7.2
2015-Jan-28 03:17 312 7.2
2015-Jan-28 03:12 312 0 gusting 2 7.2
2015-Jan-28 03:07 312 0 gusting 3 7.8
2015-Jan-28 03:02 312 0 gusting 4 7.8
2015-Jan-28 02:57 312 1 gusting 4 8.3
2015-Jan-28 02:52 312 2 gusting 4 8.3
2015-Jan-28 02:47 312 1 gusting 4 8.3
2015-Jan-28 02:42 312 2 gusting 4 8.9
2015-Jan-28 02:37 312 3 gusting 4 8.9
2015-Jan-28 02:32 299 2 gusting 5 8.9
2015-Jan-28 02:27 299 2 gusting 5 9.4
2015-Jan-28 02:22 303 3 gusting 5 10.0
2015-Jan-28 02:17 300 3 gusting 5 10.0
2015-Jan-28 02:12 291 3 gusting 4 10.0
2015-Jan-28 02:07 291 2 gusting 4 9.4
2015-Jan-28 02:02 291 2 gusting 4 9.4
2015-Jan-28 01:57 291 2 gusting 4 9.4
2015-Jan-28 01:52 291 3 gusting 4 10.0
2015-Jan-28 01:47 291 3 gusting 4 10.0
2015-Jan-28 01:42 291 2 gusting 4 10.0
2015-Jan-28 01:37 291 1 gusting 4 9.4
2015-Jan-28 01:32 291 2 gusting 4 10.0
2015-Jan-28 01:27 291 3 gusting 4 10.0
2015-Jan-28 01:22 291 2 gusting 3 10.0
2015-Jan-28 01:17 291 1 gusting 3 10.0
2015-Jan-28 01:12 291 0 gusting 3 10.0
2015-Jan-28 01:07 291 1 gusting 4 10.0
2015-Jan-28 01:02 291 2 gusting 4 10.0
2015-Jan-28 00:57 291 2 gusting 4 10.0
2015-Jan-28 00:52 291 2 gusting 4 10.0
2015-Jan-28 00:47 291 3 gusting 4 10.0
2015-Jan-28 00:42 292 2 gusting 4 9.4
2015-Jan-28 00:37 292 3 gusting 4 9.4
2015-Jan-28 00:32 299 2 gusting 4 10.0
2015-Jan-28 00:27 298 2 gusting 4 10.0
2015-Jan-28 00:22 295 2 gusting 4 10.6
2015-Jan-28 00:17 286 2 gusting 4 10.6
2015-Jan-28 00:12 286 2 gusting 4 10.0
2015-Jan-28 00:07 286 2 gusting 4 10.0
2015-Jan-28 00:02 286 2 gusting 4 10.0
2015-Jan-27 23:57 287 2 gusting 4 10.0
2015-Jan-27 23:52 287 2 gusting 4 10.0
2015-Jan-27 23:47 288 2 gusting 4 9.4
2015-Jan-27 23:42 290 3 gusting 4 9.4
2015-Jan-27 23:37 300 3 gusting 4 9.4
2015-Jan-27 23:32 302 2 gusting 3 9.4
2015-Jan-27 23:27 304 2 gusting 3 10.0
2015-Jan-27 23:22 306 2 gusting 3 10.0
2015-Jan-27 23:17 306 2 gusting 3 10.0
2015-Jan-27 23:12 307 1 gusting 3 10.0
2015-Jan-27 23:07 302 1 gusting 3 10.0
2015-Jan-27 23:02 302 1 gusting 4 10.6
2015-Jan-27 22:57 302 2 gusting 4 10.6
2015-Jan-27 22:52 302 2 gusting 4 10.6
2015-Jan-27 22:47 302 3 gusting 4 10.6
2015-Jan-27 22:42 310 3 gusting 4 10.6
2015-Jan-27 22:37 300 3 gusting 5 10.6
2015-Jan-27 22:32 291 3 gusting 5 10.6
2015-Jan-27 22:27 290 3 gusting 5 10.6
2015-Jan-27 22:22 287 3 gusting 5 10.6
2015-Jan-27 22:17 290 3 gusting 6 10.6
2015-Jan-27 22:12 285 3 gusting 6 10.0
2015-Jan-27 22:07 288 4 gusting 6 10.0
2015-Jan-27 22:02 275 3 gusting 5 9.4
2015-Jan-27 21:57 286 3 gusting 5 8.9
2015-Jan-27 21:52 293 2 gusting 5 8.9
2015-Jan-27 21:47 312 2 gusting 5 9.4
2015-Jan-27 21:42 301 2 gusting 5 9.4
2015-Jan-27 21:37 316 2 gusting 4 9.4
2015-Jan-27 21:32 292 2 gusting 4 9.4
2015-Jan-27 21:27 288 2 gusting 4 9.4
2015-Jan-27 21:22 293 2 gusting 3 9.4
2015-Jan-27 21:17 278 1 gusting 3 9.4
2015-Jan-27 21:12 278 1 gusting 3 9.4
2015-Jan-27 21:07 291 9.4
2015-Jan-27 21:02 355 0 gusting 2 9.4
2015-Jan-27 20:57 355 0 gusting 2 9.4
2015-Jan-27 20:52 355 0 gusting 2 10.0
2015-Jan-27 20:47 355 10.6
2015-Jan-27 20:42 340 10.6
2015-Jan-27 20:37 340 0 gusting 3 10.6
2015-Jan-27 20:32 341 1 gusting 3 11.1
2015-Jan-27 20:27 329 1 gusting 3 11.7
2015-Jan-27 20:22 302 1 gusting 4 11.7
2015-Jan-27 20:17 299 1 gusting 4 12.2
2015-Jan-27 20:12 294 1 gusting 4 12.8
2015-Jan-27 20:07 260 1 gusting 4 13.3
2015-Jan-27 20:02 260 2 gusting 4 13.3
2015-Jan-27 19:57 261 3 gusting 3 13.9
2015-Jan-27 19:52 262 2 gusting 3 13.9
2015-Jan-27 19:47 268 2 gusting 3 13.9
2015-Jan-27 19:42 268 2 gusting 3 13.9
2015-Jan-27 19:37 268 2 gusting 3 13.3
2015-Jan-27 19:32 268 2 gusting 3 13.3
2015-Jan-27 19:27 268 2 gusting 3 13.3
2015-Jan-27 19:22 268 2 gusting 3 13.9
2015-Jan-27 19:17 268 2 gusting 3 13.9
2015-Jan-27 19:12 268 2 gusting 3 13.9
2015-Jan-27 19:07 268 1 gusting 3 13.9
2015-Jan-27 19:02 268 1 gusting 4 13.9
2015-Jan-27 18:57 268 0 gusting 4 13.9
2015-Jan-27 18:52 268 1 gusting 4 13.9
2015-Jan-27 18:47 268 2 gusting 3 13.9
2015-Jan-27 18:42 268 2 gusting 3 14.4
2015-Jan-27 18:37 268 2 gusting 3 14.4
2015-Jan-27 18:32 268 1 gusting 2 14.4
2015-Jan-27 18:27 268 0 gusting 2 14.4
2015-Jan-27 18:12 268 1 gusting 2 14.4
2015-Jan-27 18:07 268 0 gusting 2 15.0
2015-Jan-27 18:02 268 0 gusting 2 15.0
2015-Jan-27 17:57 268 15.0
2015-Jan-27 17:52 268 0 gusting 2 15.0
2015-Jan-27 17:47 268 1 gusting 3 15.6
2015-Jan-27 17:42 268 1 gusting 3 15.6
2015-Jan-27 17:37 268 1 gusting 3 16.1
2015-Jan-27 17:32 268 1 gusting 2 16.7
2015-Jan-27 17:27 277 0 gusting 2 16.7
2015-Jan-27 17:22 284 0 gusting 1 17.2
2015-Jan-27 17:17 284 17.2
2015-Jan-27 17:12 284 17.8
2015-Jan-27 17:07 284 0 gusting 3 17.8
2015-Jan-27 17:02 284 1 gusting 3 17.8
2015-Jan-27 16:57 284 1 gusting 3 17.8
2015-Jan-27 16:52 284 1 gusting 3 17.8
2015-Jan-27 16:47 286 1 gusting 3 18.3
2015-Jan-27 16:42 314 0 gusting 2 18.3
2015-Jan-27 16:37 314 18.3
2015-Jan-27 16:32 314 18.9
2015-Jan-27 16:27 314 18.9
2015-Jan-27 16:22 314 18.3
2015-Jan-27 16:17 314 18.3
2015-Jan-27 16:12 314 18.3
2015-Jan-27 16:07 314 18.3
2015-Jan-27 16:02 314 0 gusting 3 18.3
2015-Jan-27 15:57 313 0 gusting 3 18.3
2015-Jan-27 15:52 313 0 gusting 2 18.3
2015-Jan-27 15:47 074 18.3
2015-Jan-27 15:42 074 18.3
2015-Jan-27 15:37 074 18.3
2015-Jan-27 15:32 078 18.3
2015-Jan-27 15:27 093 18.3
2015-Jan-27 15:22 094 17.8
2015-Jan-27 15:17 093 17.8
2015-Jan-27 15:12 094 17.8
2015-Jan-27 15:07 093 17.2
2015-Jan-27 15:02 093 17.2
2015-Jan-27 14:57 093 17.2
2015-Jan-27 14:52 094 17.2
2015-Jan-27 14:47 094 0 gusting 6 16.7
2015-Jan-27 14:42 093 0 gusting 6 16.7
2015-Jan-27 14:37 057 0 gusting 6 16.7
2015-Jan-27 14:32 065 0 gusting 5 16.7
2015-Jan-27 14:27 065 1 gusting 5 16.7
2015-Jan-27 14:22 053 0 gusting 5 16.7
2015-Jan-27 14:17 020 0 gusting 5 16.7
2015-Jan-27 14:12 105 1 gusting 5 16.1
2015-Jan-27 14:07 105 2 gusting 5 16.1
2015-Jan-27 14:02 105 1 gusting 6 16.1
2015-Jan-27 13:57 080 1 gusting 6 16.1
2015-Jan-27 13:52 080 1 gusting 6 16.1
2015-Jan-27 13:47 078 1 gusting 6 15.6
2015-Jan-27 13:42 081 2 gusting 5 15.6
2015-Jan-27 13:37 054 2 gusting 4 15.6
2015-Jan-27 13:32 058 1 gusting 3 15.6
2015-Jan-27 13:27 034 0 gusting 3 15.6
2015-Jan-27 13:22 034 0 gusting 3 15.6
2015-Jan-27 13:17 034 2 gusting 4 15.6
2015-Jan-27 13:12 034 2 gusting 4 15.6
2015-Jan-27 13:07 024 1 gusting 4 15.6
2015-Jan-27 13:02 15.0
2015-Jan-27 12:57 076 0 gusting 5 15.0
2015-Jan-27 12:52 076 1 gusting 6 14.4
2015-Jan-27 12:47 076 3 gusting 6 14.4
2015-Jan-27 12:42 065 3 gusting 6 14.4
2015-Jan-27 12:37 066 2 gusting 6 13.9
2015-Jan-27 12:32 066 3 gusting 6 13.9
2015-Jan-27 12:27 061 3 gusting 6 13.9
2015-Jan-27 12:22 059 3 gusting 6 13.9
2015-Jan-27 12:17 049 2 gusting 8 13.9
2015-Jan-27 12:12 069 1 gusting 8 13.3
2015-Jan-27 12:07 030 2 gusting 8 13.3
2015-Jan-27 12:02 084 3 gusting 5 13.3
2015-Jan-27 11:57 049 2 gusting 5 13.3
2015-Jan-27 11:52 094 1 gusting 4 13.3
2015-Jan-27 11:47 067 0 gusting 2 12.8
2015-Jan-27 11:42 005 12.8
2015-Jan-27 11:37 355 0 gusting 4 12.8
2015-Jan-27 11:32 344 0 gusting 3 12.2
2015-Jan-27 11:27 12.2
2015-Jan-27 11:22 005 1 gusting 3 12.2
2015-Jan-27 11:17 037 1 gusting 3 11.7
2015-Jan-27 11:12 005 1 gusting 3 11.7
2015-Jan-27 11:07 005 1 gusting 3 11.7
2015-Jan-27 11:02 058 0 gusting 5 11.7
2015-Jan-27 10:57 058 1 gusting 5 11.1
2015-Jan-27 10:52 058 1 gusting 5 11.1
2015-Jan-27 10:47 040 0 gusting 3 10.6
2015-Jan-27 10:42 080 0 gusting 4 10.6
2015-Jan-27 10:37 080 1 gusting 4 10.6
2015-Jan-27 10:32 060 0 gusting 2 10.0
2015-Jan-27 10:27 061 0 gusting 2 10.0
2015-Jan-27 10:22 061 0 gusting 2 9.4
2015-Jan-27 10:17 061 0 gusting 3 8.9
2015-Jan-27 10:12 061 0 gusting 4 8.9
2015-Jan-27 10:07 061 1 gusting 4 8.3
2015-Jan-27 10:02 052 1 gusting 3 8.3
2015-Jan-27 09:57 061 0 gusting 3 8.3
2015-Jan-27 09:52 067 0 gusting 3 8.3
2015-Jan-27 09:47 066 0 gusting 3 8.3
2015-Jan-27 09:42 056 8.3
2015-Jan-27 09:37 055 8.3
2015-Jan-27 09:32 055 8.3
2015-Jan-27 09:27 055 7.8
2015-Jan-27 09:22 055 7.8
2015-Jan-27 09:17 055 7.2
2015-Jan-27 09:12 037 0 gusting 3 7.2
2015-Jan-27 09:07 037 0 gusting 3 6.7
2015-Jan-27 09:02 348 0 gusting 2 6.7
2015-Jan-27 08:57 318 0 gusting 2 6.1
2015-Jan-27 08:52 318 0 gusting 2 6.1
2015-Jan-27 08:47 318 0 gusting 2 5.6
2015-Jan-27 08:42 318 0 gusting 2 5.6
2015-Jan-27 08:37 318 0 gusting 2 5.6
2015-Jan-27 08:32 318 0 gusting 2 5.6
2015-Jan-27 08:27 319 0 gusting 2 5.0
2015-Jan-27 08:22 294 0 gusting 2 5.0
2015-Jan-27 08:17 294 0 gusting 2 5.0
2015-Jan-27 08:12 291 1 gusting 3 4.4
2015-Jan-27 08:07 289 1 gusting 3 4.4
2015-Jan-27 08:02 289 2 gusting 3 4.4
2015-Jan-27 07:57 304 2 gusting 3 3.9
2015-Jan-27 07:52 316 2 gusting 3 3.9
2015-Jan-27 07:47 318 2 gusting 4 3.9
2015-Jan-27 07:42 318 2 gusting 4 3.9
2015-Jan-27 07:37 320 2 gusting 4 4.4
2015-Jan-27 07:32 317 2 gusting 4 4.4
2015-Jan-27 07:27 319 1 gusting 4 4.4
2015-Jan-27 07:22 310 1 gusting 3 4.4
2015-Jan-27 07:17 336 1 gusting 3 4.4
2015-Jan-27 07:12 338 1 gusting 3 4.4
2015-Jan-27 07:07 327 1 gusting 3 4.4
2015-Jan-27 07:02 333 0 gusting 3 4.4
2015-Jan-27 06:57 333 0 gusting 3 5.0
2015-Jan-27 06:52 333 0 gusting 3 5.0
2015-Jan-27 06:47 333 0 gusting 3 5.0
2015-Jan-27 05:47 336 6.1
2015-Jan-27 05:42 336 6.1
2015-Jan-27 05:37 336 0 gusting 2 6.1
2015-Jan-27 05:32 336 5.6
2015-Jan-27 05:27 336 5.6
2015-Jan-27 05:22 336 0 gusting 2 5.6
2015-Jan-27 05:17 336 0 gusting 2 5.6
2015-Jan-27 05:12 336 0 gusting 2 5.6
2015-Jan-27 05:07 336 0 gusting 2 5.6
2015-Jan-27 05:02 336 0 gusting 1 5.6
2015-Jan-27 04:57 336 0 gusting 1 5.6
2015-Jan-27 04:52 336 0 gusting 3 5.6
2015-Jan-27 04:47 336 6.1
2015-Jan-27 04:42 336 0 gusting 3 6.1
2015-Jan-27 04:37 336 1 gusting 3 6.7
2015-Jan-27 04:32 336 2 gusting 2 6.7
2015-Jan-27 04:27 336 1 gusting 2 6.7
2015-Jan-27 04:22 291 0 gusting 1 6.7
2015-Jan-27 04:17 291 0 gusting 1 6.7
2015-Jan-27 04:12 291 0 gusting 1 6.7
2015-Jan-27 04:07 291 0 gusting 2 6.7
2015-Jan-27 04:02 291 0 gusting 2 6.7
2015-Jan-27 03:57 291 1 gusting 2 7.2
2015-Jan-27 03:52 291 0 gusting 1 7.2
2015-Jan-27 03:47 291 7.2
2015-Jan-27 03:42 291 7.2
2015-Jan-27 03:37 291 7.2
2015-Jan-27 03:32 291 7.2
2015-Jan-27 03:27 291 0 gusting 2 7.2
2015-Jan-27 03:22 291 1 gusting 2 7.2
2015-Jan-27 03:17 291 1 gusting 2 7.2
2015-Jan-27 03:12 291 1 gusting 3 7.2
2015-Jan-27 03:07 291 0 gusting 3 7.2
2015-Jan-27 03:02 291 1 gusting 2 7.2
2015-Jan-27 02:57 291 0 gusting 2 7.2
2015-Jan-27 02:52 291 7.2
2015-Jan-27 02:47 291 7.2
2015-Jan-27 02:42 291 7.2
2015-Jan-27 02:37 291 0 gusting 1 7.2
2015-Jan-27 02:32 291 7.8
2015-Jan-27 02:27 291 7.8
2015-Jan-27 02:22 291 7.8
2015-Jan-27 02:17 291 7.8
2015-Jan-27 02:12 291 7.8
2015-Jan-27 02:07 291 7.8
2015-Jan-27 02:02 291 8.3
2015-Jan-27 01:57 291 8.3
2015-Jan-27 01:52 291 8.3
2015-Jan-27 01:47 291 8.3
2015-Jan-27 01:42 291 8.9
2015-Jan-27 01:37 291 0 gusting 2 8.9
2015-Jan-27 01:32 291 0 8.9
2015-Jan-27 01:27 291 8.9
2015-Jan-27 01:22 291 8.9
2015-Jan-27 01:17 291 8.9
2015-Jan-27 01:12 291 0 gusting 2 8.9
2015-Jan-27 01:07 291 1 gusting 2 8.9
2015-Jan-27 01:02 291 0 8.9
2015-Jan-27 00:57 291 8.9
2015-Jan-27 00:52 291 8.9
2015-Jan-27 00:47 291 8.9
2015-Jan-27 00:42 291 8.9
2015-Jan-27 00:37 291 0 gusting 1 8.9
2015-Jan-27 00:32 291 8.9
2015-Jan-27 00:27 291 9.4
2015-Jan-27 00:22 291 9.4
2015-Jan-27 00:17 291 9.4
2015-Jan-27 00:12 291 9.4
2015-Jan-27 00:07 291 9.4
2015-Jan-27 00:02 291 9.4